Regional Weather Roundup
Issued by NWS Burlington, VT

Current Version | Previous Version | Text Only | Print | Product List | Glossary On
Versions: 1 2 3 4 5 6 7 8 9 10 11 12 13 14 15 16 17 18 19 20 21 22 23 24 25 26 27 28 29 30 31 32 33 34 35 36 37 38 39 40 41 42 43 44 45 46 47 48 49 50
366 ASUS41 KBTV 252110 RWRBTV VERMONT REGIONAL WEATHER ROUNDUP NATIONAL WEATHER SERVICE BURLINGTON VT 500 PM EDT SAT JUN 25 2016 NOTE: "FAIR" INDICATES FEW OR NO CLOUDS BELOW 12,000 FEET WITH NO SIGNIFICANT WEATHER AND/OR OBSTRUCTIONS TO VISIBILITY. * THESE REPORTS ARE NOT UNDER NWS QUALITY CONTROL AND/OR DO NOT REPORT WEATHER SUCH AS PRECIPITATION AND FOG. VTZ001>019-252200- _____VERMONT_____ CITY SKY/WX TMP DP RH WIND PRES REMARKS BURLINGTON FAIR 86 49 27 SE5 30.13F MONTPELIER PTSUNNY 82 52 35 NW6 30.20F MORRISVILLE FAIR 82 53 36 NW6 30.16F ST. JOHNSBURY* N/A 84 53 34 MISG 30.13F LYNDONVILLE* FAIR 80 52 36 NE3 30.18F MIDDLEBURY* FAIR 85 45 24 SW5 30.15S RUTLAND* FAIR 83 53 35 VRB5 30.16F SPRINGFIELD FAIR 84 47 27 S5 30.15F HIGHGATE* FAIR 84 49 29 S7 30.13F NEWPORT* FAIR 80 54 39 SW7 30.16F BENNINGTON FAIR 84 49 29 VRB3 30.16F SUTTON* N/A 79 N/A N/A MISG N/A _____LAKE CHAMPLAIN_____ CITY SKY/WX TMP DP RH WIND PRES REMARKS BURTON ISLAND* N/A 82 59 44 N1 N/A COLCHESTER RF* N/A 79 52 38 S1 N/A DIAMOND ISL* N/A 82 54 36 N6 N/A $$ NYZ007-026>031-035-052-083-087-252200- _____NORTHERN NEW YORK_____ CITY SKY/WX TMP DP RH WIND PRES REMARKS PLATTSBURGH SUNNY 82 50 32 E6 30.13 SARANAC LAKE N/A N/A N/A N/A MISG 30.16F MASSENA SUNNY 85 50 29 SW8 30.12F OGDENSBURG* SUNNY 88 54 31 SW7 30.11F WATERTOWN SUNNY 82 47 29 SW6 30.13F FT DRUM SUNNY 82 54 37 SW8 30.13F ALBANY PTSUNNY 85 55 35 CALM 30.14S GLENS FALLS SUNNY 85 54 34 SE7 30.13F $$ NHZ002-005-011-252200- _____NEW HAMPSHIRE_____ CITY SKY/WX TMP DP RH WIND PRES REMARKS LEBANON SUNNY 85 51 31 SE5 30.14F KEENE SUNNY 84 52 32 SW5 30.16F MT WASHINGTON PTSUNNY 55 46 71 W9 N/A PLYMOUTH FAIR 84 51 32 S3 30.14F WHITEFIELD SUNNY 83 50 31 W7 30.16F $$ _____REGIONAL QUEBEC LOCATIONS_____ CITY SKY/WX TMP DP RH WIND PRES REMARKS MONTREAL PTSUNNY 86 52 30 SW9 30.09F QUEBEC CITY PTSUNNY 82 57 42 SW14 30.10R SHERBROOKE SUNNY 82 54 36 W6 30.14S _____REGIONAL ONTARIO LOCATIONS_____ CITY SKY/WX TMP DP RH WIND PRES REMARKS OTTAWA MOSUNNY 86 50 28 SW6 30.10F ______KEY______ VSB - VISIBILITY IN MILES WCI - WIND CHILL INDEX HX - HEAT INDEX $$ NNNN

USA.gov is the U.S. government's official web portal to all federal, state and local government web resources and services.